FW7086 Weather Reports


Display with metric or nautical units.
time (UTC)temp
F
wind
direction
speed
MPH
gust
MPH
rain 1hr
in
rain 24hr
in
rain mn
in
humidity
%
barometer
mb
20260502150327 50 18 0.0 1.0 0.00 0.00 0.00 43 1021.5
20260502130716 44 282 2.0 2.0 0.00 0.00 0.00 65 1021.6
20260502130214 43 331 0.0 1.0 0.00 0.00 0.00 66 1021.7
20260502123659 42 10 0.0 0.0 0.00 0.00 0.00 71 1021.8
20260502123156 41 32 0.0 1.0 0.00 0.00 0.00 72 1021.6
20260502122652 41 355 1.0 1.0 0.00 0.00 0.00 74 1021.7
20260502122149 40 1 1.0 1.0 0.00 0.00 0.00 75 1021.6
20260502121647 39 1 0.0 1.0 0.00 0.00 0.00 77 1021.6
20260502121145 39 268 1.0 1.0 0.00 0.00 0.00 78 1021.6
20260502120641 38 345 0.0 0.0 0.00 0.00 0.00 83 1021.4
20260502120138 37 28 0.0 0.0 0.00 0.00 0.00 89 1021.3
20260502115635 37 355 0.0 0.0 0.00 0.00 0.00 92 1021.2
20260502115131 37 337 0.0 1.0 0.00 0.00 0.00 95 1021.4
20260502114627 36 11 0.0 0.0 0.00 0.00 0.00 96 1021.1
20260502114125 34 7 0.0 0.0 0.00 0.00 0.00 96 1021.3
20260502113622 34 6 0.0 0.0 0.00 0.00 0.00 96 1021.0
20260502113121 33 6 0.0 0.0 0.00 0.00 0.00 97 1021.1
20260502112618 32 6 0.0 0.0 0.00 0.00 0.00 97 1021.2
20260502112115 32 6 0.0 0.0 0.00 0.00 0.00 97 1021.0
20260502111613 32 6 0.0 0.0 0.00 0.00 0.00 97 1021.0
20260502111110 31 6 0.0 0.0 0.00 0.00 0.00 97 1020.9
20260502110608 31 6 0.0 0.0 0.00 0.00 0.00 97 1020.9
20260502110105 30 6 0.0 0.0 0.00 0.00 0.00 97 1020.9
20260502105602 30 5 0.0 0.0 0.00 0.00 0.00 97 1020.7
20260502105059 30 5 0.0 0.0 0.00 0.00 0.00 97 1020.8
20260502104556 30 5 0.0 0.0 0.00 0.00 0.00 97 1020.7
20260502104054 30 5 0.0 0.0 0.00 0.00 0.00 97 1020.7
20260502103551 30 5 0.0 0.0 0.00 0.00 0.00 97 1020.9
20260502103049 30 5 0.0 0.0 0.00 0.00 0.00 97 1020.6
20260502102545 30 5 0.0 0.0 0.00 0.00 0.00 97 1020.8
20260502102043 29 5 0.0 0.0 0.00 0.00 0.00 96 1020.6
20260502101540 29 5 0.0 0.0 0.00 0.00 0.00 96 1020.7
20260502101039 29 5 0.0 0.0 0.00 0.00 0.00 96 1020.6
20260502100537 29 5 0.0 0.0 0.00 0.00 0.00 96 1020.5
20260502091512 30 5 0.0 0.0 0.00 0.00 0.00 95 1020.7
20260502091009 30 5 0.0 0.0 0.00 0.00 0.00 95 1020.6
20260502090505 31 5 0.0 0.0 0.00 0.00 0.00 95 1020.7
20260502071400 31 351 0.0 0.0 0.00 0.00 0.00 93 1020.6
20260502070858 32 351 0.0 0.0 0.00 0.00 0.00 93 1020.7
20260502070356 32 351 0.0 0.0 0.00 0.00 0.00 93 1020.8
20260502065855 32 351 0.0 0.0 0.00 0.00 0.00 93 1020.9
20260502065352 32 351 0.0 0.0 0.00 0.00 0.00 92 1020.7
20260502064850 32 351 0.0 0.0 0.00 0.00 0.00 92 1021.0
20260502064348 32 351 0.0 0.0 0.00 0.00 0.00 92 1021.0
20260502063844 31 351 0.0 0.0 0.00 0.00 0.00 92 1021.1
20260502063342 32 351 0.0 0.0 0.00 0.00 0.00 92 1021.0
20260502062839 32 351 0.0 0.0 0.00 0.00 0.00 92 1021.2
20260502062337 32 351 0.0 0.0 0.00 0.00 0.00 92 1021.1
20260502061836 32 351 0.0 0.0 0.00 0.00 0.00 92 1021.2
20260502061333 32 351 0.0 0.0 0.00 0.00 0.00 91 1021.1
20260502060828 31 351 0.0 0.0 0.00 0.00 0.00 91 1021.1
20260502060324 32 351 0.0 0.0 0.00 0.00 0.00 91 1021.1
20260502055822 32 351 0.0 0.0 0.00 0.00 0.00 90 1021.3
20260502055319 32 351 0.0 0.0 0.00 0.00 0.00 90 1021.2
20260502054819 32 351 0.0 0.0 0.00 0.00 0.00 90 1021.0
20260502054316 32 351 0.0 0.0 0.00 0.00 0.00 90 1021.2
20260502053813 32 351 0.0 0.0 0.00 0.00 0.00 90 1021.3
20260502053310 32 351 0.0 0.0 0.00 0.00 0.00 89 1021.3
20260502052808 32 351 0.0 0.0 0.00 0.00 0.00 89 1021.1
20260502052306 33 351 0.0 0.0 0.00 0.00 0.00 89 1021.0
20260502051804 33 351 0.0 0.0 0.00 0.00 0.00 88 1021.3
20260502051302 33 351 0.0 0.0 0.00 0.00 0.00 88 1021.2
20260502050758 33 351 0.0 0.0 0.00 0.00 0.00 88 1021.2
20260502050254 33 351 0.0 0.0 0.00 0.00 0.00 88 1021.0
20260502045752 33 351 0.0 0.0 0.00 0.09 0.09 87 1021.1
20260502045248 33 351 0.0 0.0 0.00 0.09 0.09 86 1021.3
20260502044745 34 351 0.0 0.0 0.00 0.09 0.09 86 1021.1
20260502044241 34 351 0.0 0.0 0.00 0.09 0.09 86 1021.2
20260502043739 34 351 0.0 0.0 0.00 0.09 0.09 85 1021.3
20260502043236 34 351 0.0 0.0 0.00 0.09 0.09 85 1021.2
20260502042735 34 351 0.0 0.0 0.00 0.09 0.09 85 1021.1
20260502042233 34 351 0.0 0.0 0.00 0.09 0.09 84 1021.1
20260502041731 34 347 0.0 0.0 0.00 0.09 0.09 84 1021.1
20260502041228 35 347 0.0 0.0 0.00 0.09 0.09 83 1021.2
20260502040725 35 347 0.0 0.0 0.00 0.09 0.09 82 1021.1
20260502040221 35 345 0.0 0.0 0.00 0.09 0.09 81 1021.1
20260502035717 35 345 0.0 0.0 0.00 0.09 0.09 81 1021.1
20260502035215 36 345 0.0 0.0 0.00 0.09 0.09 80 1021.1
20260502034712 36 346 0.0 0.0 0.00 0.09 0.09 80 1021.2
20260502034210 35 19 0.0 0.0 0.00 0.09 0.09 79 1021.0
20260502033708 36 19 0.0 0.0 0.00 0.09 0.09 79 1021.0
20260502033206 36 19 0.0 0.0 0.00 0.09 0.09 78 1021.1
20260502032702 36 20 0.0 0.0 0.00 0.09 0.09 78 1021.0
20260502032157 36 29 0.0 0.0 0.00 0.09 0.09 78 1020.9
20260502031656 36 32 0.0 0.0 0.00 0.09 0.09 77 1020.8
20260502031153 36 36 0.0 0.0 0.00 0.09 0.09 77 1020.8
20260502030652 36 55 0.0 0.0 0.00 0.09 0.09 76 1020.9
20260502030150 36 59 0.0 0.0 0.00 0.09 0.09 75 1020.9
20260502025646 36 61 0.0 0.0 0.00 0.09 0.09 75 1021.0
20260502025144 37 64 0.0 0.0 0.00 0.09 0.09 73 1020.7
20260502024642 38 65 0.0 0.0 0.00 0.09 0.09 72 1020.9
20260502024140 38 63 0.0 0.0 0.00 0.09 0.09 70 1020.9
20260502023638 38 64 0.0 0.0 0.00 0.09 0.09 70 1020.8
20260502023135 38 45 0.0 0.0 0.00 0.09 0.09 69 1020.9
20260502022632 39 7 1.0 1.0 0.00 0.09 0.09 69 1020.7
20260502022129 38 4 0.0 1.0 0.00 0.09 0.09 69 1020.7
20260502021626 39 43 0.0 0.0 0.00 0.09 0.09 69 1020.6
20260502021123 39 25 0.0 0.0 0.00 0.09 0.09 69 1020.8
20260502020621 39 28 1.0 1.0 0.00 0.09 0.09 69 1020.6
20260502020117 39 17 0.0 1.0 0.00 0.09 0.09 68 1020.5
20260502015615 39 135 2.0 3.0 0.00 0.09 0.09 69 1020.5
20260502015111 39 26 2.0 2.0 0.00 0.09 0.09 69 1020.6
20260502014608 39 102 2.0 2.0 0.00 0.09 0.09 70 1020.4
20260502014106 39 46 1.0 1.0 0.00 0.09 0.09 72 1020.4
20260502013600 39 68 0.0 0.0 0.00 0.09 0.09 74 1020.3
20260502013057 39 17 0.0 1.0 0.00 0.09 0.09 76 1020.2
20260502012555 39 6 0.0 2.0 0.00 0.09 0.09 77 1020.1
20260502012053 39 50 0.0 0.0 0.00 0.09 0.09 78 1020.1
20260502011549 39 28 0.0 1.0 0.00 0.09 0.09 78 1020.1
20260502011045 39 41 0.0 1.0 0.00 0.09 0.09 78 1020.3
20260502010543 39 70 1.0 2.0 0.00 0.09 0.09 77 1020.1
20260502010039 39 28 0.0 0.0 0.00 0.09 0.09 76 1020.1
20260502005537 39 21 1.0 1.0 0.00 0.09 0.09 74 1020.1
20260502005034 40 47 2.0 3.0 0.00 0.09 0.09 71 1020.1
20260502004530 40 118 1.0 2.0 0.00 0.09 0.09 67 1020.0
20260502004027 41 28 2.0 2.0 0.00 0.09 0.09 66 1020.0
20260502003525 41 33 0.0 0.0 0.00 0.09 0.09 65 1019.9
20260502003021 41 20 1.0 2.0 0.00 0.09 0.09 65 1020.0
20260502002518 41 3 1.0 1.0 0.00 0.09 0.09 65 1019.7
20260502002015 42 18 2.0 3.0 0.00 0.09 0.09 64 1019.8
20260502001513 42 51 2.0 3.0 0.00 0.09 0.09 64 1019.9
20260502001010 42 59 3.0 3.0 0.00 0.09 0.09 63 1019.7
20260502000508 42 39 1.0 2.0 0.00 0.09 0.09 65 1019.8
20260502000005 42 17 1.0 1.0 0.00 0.09 0.09 66 1019.5
20260501235500 42 53 1.0 2.0 0.00 0.09 0.09 65 1019.6
20260501234955 43 95 1.0 2.0 0.00 0.09 0.09 67 1019.7
20260501234452 43 38 4.0 7.0 0.00 0.09 0.09 66 1019.6
20260501233951 43 76 3.0 4.0 0.00 0.09 0.09 66 1019.5
20260501233448 43 67 1.0 1.0 0.00 0.09 0.09 66 1019.5
20260501232944 44 8 2.0 3.0 0.00 0.09 0.09 67 1019.4
20260501232441 43 37 0.0 0.0 0.00 0.09 0.09 69 1019.3
20260501231938 43 136 0.0 1.0 0.00 0.09 0.09 69 1019.4
20260501231437 43 20 1.0 1.0 0.00 0.09 0.09 69 1019.4
20260501230934 44 77 0.0 1.0 0.00 0.09 0.09 69 1019.4
20260501230433 44 147 2.0 3.0 0.00 0.09 0.09 67 1019.4
20260501225930 44 121 1.0 1.0 0.00 0.09 0.09 68 1019.5
20260501225428 44 331 1.0 1.0 0.00 0.09 0.09 66 1019.5
20260501224923 45 75 3.0 4.0 0.00 0.09 0.09 65 1019.6
20260501224421 46 80 1.0 2.0 0.00 0.09 0.09 66 1019.3
20260501223918 45 83 2.0 3.0 0.00 0.09 0.09 65 1019.3
20260501223414 44 42 5.0 7.0 0.00 0.09 0.09 64 1019.4
20260501222910 44 351 3.0 3.0 0.00 0.09 0.09 65 1019.4
20260501222408 45 358 2.0 2.0 0.00 0.09 0.09 65 1019.5
20260501221903 45 48 0.0 1.0 0.00 0.09 0.09 66 1019.4
20260501221401 44 67 2.0 3.0 0.00 0.09 0.09 67 1019.4
20260501220859 45 42 1.0 2.0 0.00 0.09 0.09 68 1019.3
20260501220356 45 12 2.0 2.0 0.00 0.09 0.09 68 1019.4
20260501215852 45 14 1.0 2.0 0.00 0.09 0.09 68 1019.5
20260501215348 45 64 2.0 3.0 0.00 0.09 0.09 69 1019.5
20260501214844 44 79 1.0 2.0 0.00 0.09 0.09 69 1019.4
20260501214340 44 70 3.0 4.0 0.00 0.09 0.09 70 1019.5
20260501213836 45 78 5.0 6.0 0.00 0.09 0.09 69 1019.3
20260501213332 44 1 2.0 2.0 0.00 0.09 0.09 70 1019.3
20260501212828 45 55 1.0 3.0 0.00 0.09 0.09 70 1019.3
20260501212325 44 313 0.0 1.0 0.00 0.09 0.09 70 1019.5
20260501211822 45 25 1.0 2.0 0.00 0.09 0.09 68 1019.4
20260501211320 45 11 1.0 2.0 0.00 0.09 0.09 69 1019.2
20260501210816 45 111 1.0 2.0 0.00 0.09 0.09 70 1019.4
20260501210314 45 112 3.0 3.0 0.00 0.09 0.09 69 1019.3
20260501205810 46 35 2.0 2.0 0.00 0.09 0.09 70 1019.2
20260501205307 45 70 2.0 4.0 0.00 0.09 0.09 70 1019.0
20260501204803 45 77 4.0 4.0 0.00 0.09 0.09 70 1019.1
20260501204300 46 7 2.0 2.0 0.00 0.09 0.09 71 1019.3
20260501203756 45 16 1.0 1.0 0.00 0.09 0.09 71 1019.4
20260501203254 44 37 0.0 1.0 0.00 0.09 0.09 72 1019.4
20260501202751 44 8 1.0 2.0 0.00 0.09 0.09 71 1019.3
20260501202247 45 24 0.0 1.0 0.00 0.09 0.09 70 1019.4
20260501201744 45 69 4.0 4.0 0.00 0.09 0.09 68 1019.2
20260501201241 45 68 1.0 1.0 0.00 0.09 0.09 69 1019.3
20260501200738 45 55 2.0 3.0 0.00 0.09 0.09 67 1019.3
20260501200235 45 25 4.0 6.0 0.00 0.09 0.09 67 1019.2
20260501195732 46 107 2.0 2.0 0.00 0.09 0.09 65 1019.3
20260501195228 46 119 2.0 2.0 0.00 0.09 0.09 65 1019.1
20260501194724 46 244 3.0 4.0 0.00 0.09 0.09 66 1019.1
20260501194220 46 11 3.0 6.0 0.00 0.09 0.09 66 1019.1
20260501193717 46 17 1.0 1.0 0.00 0.09 0.09 66 1019.1
20260501193215 46 338 2.0 2.0 0.00 0.09 0.09 65 1019.0
20260501192713 46 74 5.0 6.0 0.00 0.09 0.09 65 1018.9
20260501192210 46 41 1.0 2.0 0.00 0.09 0.09 66 1019.1
20260501191707 47 57 0.0 1.0 0.00 0.09 0.09 66 1019.1
20260501191204 45 103 2.0 4.0 0.00 0.09 0.09 68 1019.0
20260501190700 46 66 3.0 3.0 0.00 0.09 0.09 68 1018.9
20260501190156 45 41 2.0 2.0 0.00 0.09 0.09 68 1018.8
20260501185652 45 75 2.0 2.0 0.00 0.09 0.09 68 1018.8
20260501185147 45 111 3.0 4.0 0.00 0.09 0.09 69 1019.0
20260501184644 46 113 3.0 3.0 0.00 0.09 0.09 69 1018.7
20260501184139 45 29 1.0 2.0 0.00 0.09 0.09 71 1018.7
20260501183636 46 45 3.0 6.0 0.00 0.09 0.09 71 1018.7
20260501183132 45 100 1.0 1.0 0.00 0.09 0.09 71 1018.6
20260501182629 45 86 2.0 2.0 0.00 0.09 0.09 70 1018.4
20260501182125 46 21 4.0 4.0 0.00 0.09 0.09 68 1018.4
20260501181623 46 18 4.0 7.0 0.00 0.09 0.09 68 1018.7
20260501181120 47 298 2.0 2.0 0.00 0.09 0.09 67 1018.2
20260501180618 48 16 5.0 7.0 0.00 0.09 0.09 64 1018.2
20260501180114 47 19 4.0 4.0 0.00 0.09 0.09 65 1018.4
20260501175611 48 139 1.0 2.0 0.00 0.09 0.09 65 1018.3
20260501175108 47 126 3.0 4.0 0.00 0.09 0.09 66 1018.3
20260501174604 48 41 4.0 4.0 0.00 0.09 0.09 63 1018.2
20260501174102 48 132 1.0 1.0 0.00 0.09 0.09 65 1018.2
20260501173559 49 28 1.0 1.0 0.00 0.09 0.09 65 1017.9
20260501173055 50 4 3.0 3.0 0.00 0.09 0.09 61 1018.1
20260501172551 48 26 1.0 1.0 0.00 0.09 0.09 62 1018.0
20260501172047 48 65 2.0 2.0 0.00 0.09 0.09 64 1018.0
20260501171543 48 7 3.0 4.0 0.00 0.09 0.09 63 1018.1
20260501171040 48 88 2.0 4.0 0.00 0.09 0.09 62 1018.2
20260501170537 48 76 2.0 2.0 0.00 0.09 0.09 61 1018.0
20260501170034 49 16 2.0 2.0 0.00 0.09 0.09 52 1018.1
20260501165532 49 333 3.0 3.0 0.00 0.09 0.09 48 1018.0
20260501165029 49 27 3.0 3.0 0.00 0.09 0.09 47 1018.1
20260501164527 49 321 5.0 6.0 0.00 0.09 0.09 48 1018.1
20260501164023 51 342 2.0 2.0 0.00 0.09 0.09 46 1018.0
20260501163520 51 346 3.0 6.0 0.00 0.09 0.09 49 1017.9
20260501163016 49 341 3.0 3.0 0.00 0.09 0.09 53 1018.0
20260501162513 49 238 7.0 10.0 0.00 0.09 0.09 49 1018.0
20260501162010 50 38 4.0 4.0 0.00 0.09 0.09 48 1017.8
20260501161507 50 307 2.0 3.0 0.00 0.09 0.09 49 1018.0
20260501161004 50 234 3.0 4.0 0.00 0.09 0.09 50 1018.0
20260501160501 49 286 4.0 6.0 0.00 0.09 0.09 50 1018.1
20260501155957 49 246 4.0 6.0 0.00 0.09 0.09 50 1018.0
20260501155454 50 342 2.0 3.0 0.00 0.09 0.09 50 1018.0
20260501154951 48 344 1.0 2.0 0.00 0.09 0.09 57 1018.1
20260501154449 48 259 5.0 6.0 0.00 0.09 0.09 59 1018.2
20260501153945 48 312 3.0 4.0 0.00 0.09 0.09 61 1018.1
20260501153443 50 42 2.0 2.0 0.00 0.09 0.09 61 1018.1
20260501152944 49 46 5.0 8.0 0.00 0.09 0.09 64 1018.1
20260501152442 48 31 1.0 2.0 0.00 0.09 0.09 67 1018.1
20260501151939 46 313 1.0 2.0 0.00 0.09 0.09 69 1018.0
20260501151436 46 326 2.0 3.0 0.00 0.09 0.09 69 1018.0
20260501150932 46 16 4.0 4.0 0.00 0.09 0.09 68 1018.1